TimePST,TemperatureF,Dew PointF,Humidity,Sea Level PressureIn,VisibilityMPH,Wind Direction,Wind SpeedMPH,Gust SpeedMPH,PrecipitationIn,Events,Conditions,WindDirDegrees,DateUTC
12:54 AM,45.0,36.0,71,29.85,10.0,Calm,Calm,-,N/A,,Clear,0,2013-03-08 08:54:00
1:54 AM,46.0,37.0,71,29.84,10.0,Calm,Calm,-,N/A,,Clear,0,2013-03-08 09:54:00
2:54 AM,42.1,36.0,79,29.83,10.0,NW,5.8,-,N/A,,Clear,320,2013-03-08 10:54:00
3:54 AM,37.0,34.0,89,29.83,10.0,Calm,Calm,-,N/A,,Partly Cloudy,0,2013-03-08 11:54:00
4:54 AM,36.0,33.1,89,29.83,10.0,Calm,Calm,-,N/A,,Scattered Clouds,0,2013-03-08 12:54:00
5:54 AM,36.0,32.0,86,29.83,10.0,Calm,Calm,-,N/A,,Clear,0,2013-03-08 13:54:00
6:54 AM,36.0,33.1,89,29.84,10.0,WNW,3.5,-,N/A,,Clear,300,2013-03-08 14:54:00
7:54 AM,43.0,37.9,82,29.86,10.0,Calm,Calm,-,N/A,,Clear,0,2013-03-08 15:54:00
8:54 AM,46.9,36.0,66,29.87,10.0,North,3.5,-,N/A,,Clear,350,2013-03-08 16:54:00
9:54 AM,48.9,39.0,69,29.87,10.0,Calm,Calm,-,N/A,,Clear,0,2013-03-08 17:54:00
10:54 AM,57.0,39.9,53,29.86,10.0,SW,9.2,-,N/A,,Clear,230,2013-03-08 18:54:00
11:54 AM,61.0,41.0,48,29.86,10.0,West,12.7,-,N/A,,Clear,260,2013-03-08 19:54:00
12:54 PM,62.1,41.0,46,29.84,10.0,WSW,13.8,-,N/A,,Clear,250,2013-03-08 20:54:00
1:54 PM,62.1,45.0,53,29.83,10.0,West,15.0,-,N/A,,Clear,260,2013-03-08 21:54:00
2:54 PM,60.1,44.1,55,29.83,10.0,West,18.4,25.3,N/A,,Clear,270,2013-03-08 22:54:00
3:54 PM,57.0,44.1,62,29.84,10.0,West,19.6,26.5,N/A,,Clear,260,2013-03-08 23:54:00
4:54 PM,55.0,44.1,67,29.85,10.0,West,16.1,-,N/A,,Clear,270,2013-03-09 00:54:00
5:54 PM,52.0,42.1,69,29.89,10.0,SSW,4.6,-,N/A,,Clear,200,2013-03-09 01:54:00
6:54 PM,48.9,42.1,77,29.92,10.0,WSW,5.8,-,N/A,,Clear,250,2013-03-09 02:54:00
7:54 PM,48.0,42.1,80,29.94,10.0,WSW,8.1,-,N/A,,Clear,250,2013-03-09 03:54:00
8:54 PM,46.9,42.1,83,29.97,10.0,West,11.5,-,N/A,,Clear,260,2013-03-09 04:54:00
9:54 PM,46.0,41.0,83,29.99,10.0,WSW,11.5,-,N/A,,Clear,250,2013-03-09 05:54:00
10:54 PM,46.0,41.0,83,30.01,10.0,West,8.1,-,N/A,,Scattered Clouds,270,2013-03-09 06:54:00
11:54 PM,39.9,37.0,89,30.02,10.0,Calm,Calm,-,N/A,,Clear,0,2013-03-09 07:54:00